カタログに戻る

STARLINK-5548

運用中通信SSO
NORAD 56334·PAYLOAD·🇺🇸 United States

打ち上げ Apr 27, 2023 から Vandenberg Space Force Base

Loading…

次のパス (今後24時間)

TLE

最新Source: CelesTrak SupGP

元期: Sep 14, 2026, 21:55 UTC

1 56334C 23058T   26257.91368056  .00059203  00000+0  18380-2 0  2576
2 56334  97.2846 254.6859 0001761  87.6589 309.1877 15.33405055    13

AllMySatでSTARLINK-5548をリアルタイム追跡

Download on the App Store